Location: Bayshore Village Mobile Home Park
(26.6945°N, 81.8642°W)
Time: 01:13:41
(UTC+00:00)

Spot 1 - Pass Details

Date: 17 June 2021
Orbit: 575 x 777 km, 98.7° (Epoch: 05 August)

Event Time Altitude Azimuth Distance (km) Brightness Sun altitude
Exits shadow 08:53:46 25° 183° (S) 1,514 5.6 -19.5°
Maximum altitude 08:56:43 65° 258° (WSW) 846 4.4 -19.0°
Drops below altitude 10° 09:01:45 10° 340° (NNW) 2,283 7.2 -18.1°
Sets 09:04:02 0° 343° (NNW) 3,189 8.0 -17.7°
